Вернуться в каталог

DELTA 1 R/B(1)

АктивенLEO
NORAD 14051·ROCKET BODY·🇺🇸 United States

Запущен Apr 28, 1983 с Cape Canaveral Space Force Station

Loading…

Ближайшие Пролёты (ближайшие 24 часа)

TLE

СвежийSource: Space-Track

Эпоха: Sep 14, 2026, 22:38 UTC

1 14051U 83041B   26257.94329801  .00007452  00000-0  63206-3 0  9993
2 14051  25.3237 186.7729 0977188  59.7240 309.6345 13.36263947 23843

Отслеживайте DELTA 1 R/B(1) в реальном времени с AllMySat

Download on the App Store